Sarasota, FL

11:27 AM EST on December 13, 2019 (GMT -0500)
Sarasota-bradenton

Weather History for KSRQ - October, 2019

Change the Weather History Date:

Tuesday, October 22, 2019

  Actual Average Record
Temperature  
Mean Temperature 84 °F 75 °F  
Max Temperature 90 °F 84 °F 92 °F (1993)
Min Temperature 78 °F 66 °F 46 °F (1989)
Degree Days  
Heating Degree Days 0 0  
Month to date heating degree days 0 0  
Since 1 July heating degree days 0 0  
Cooling Degree Days 19 10  
Month to date cooling degree days 392 275  
Year to date cooling degree days 3849 3064  
Growing Degree Days 34 (Base 50)    
Moisture  
Dew Point 77 °F    
Average Humidity 81    
Maximum Humidity 97    
Minimum Humidity 67    
Precipitation  
Precipitation T in 0.08 in 1.69 in (1911)
Month to date precipitation 3.22 2.42  
Year to date precipitation 46.60 47.85  
Sea Level Pressure  
Sea Level Pressure 29.98 in    
Wind  
Wind Speed 6 mph ()    
Max Wind Speed 15 mph    
Max Gust Speed 18 mph    
Visibility 9.6 miles    
Events Rain    
T = Trace of Precipitation, MM = Missing Value Source: Averaged Metar Reports

Daily Weather History Graph

Daily Weather History Graph

Search for Another Location

Airport or City:

Astronomy

Oct. 22, 2019 Rise Set
Actual Time 7:34 AM EDT 6:54 PM EDT
Civil Twilight 7:10 AM EDT 7:18 PM EDT
Nautical Twilight 6:43 AM EDT 7:45 PM EDT
Astronomical Twilight 6:15 AM EDT 8:12 PM EDT
Moon 1:26 AM EDT (10/22) 3:22 PM EDT (10/22)
Length of Visible Light 12h 08m
Length of Day
11h 20m
Last Quarter, 37% of the Moon is Illuminated
Oct 22
Last Quarter
Oct 27
New
Nov 4
First Quarter
Nov 12
Full
Nov 19
Last Quarter

Hourly Weather History & Observations

Time (EDT) Temp. Heat Index Dew Point Humidity Pressure Visibility Wind Dir Wind Speed Gust Speed Precip Events Conditions
12:53 AM 80.1 °F 85.8 °F 77.0 °F 90% 29.99 in 10.0 mi SE 3.5 mph - N/A   Clear
1:53 AM 80.1 °F 85.8 °F 77.0 °F 90% 29.99 in 10.0 mi Calm Calm - N/A   Partly Cloudy
2:53 AM 80.1 °F 85.8 °F 77.0 °F 90% 29.99 in 10.0 mi SSE 3.5 mph - N/A   Scattered Clouds
3:53 AM 79.0 °F - 75.9 °F 90% 29.98 in 8.0 mi SE 4.6 mph - N/A   Partly Cloudy
4:53 AM 79.0 °F - 77.0 °F 94% 29.97 in 9.0 mi ESE 3.5 mph - N/A   Mostly Cloudy
5:53 AM 78.1 °F - 75.0 °F 90% 29.98 in 7.0 mi SE 6.9 mph - N/A   Partly Cloudy
6:53 AM 78.1 °F - 75.0 °F 90% 29.99 in 9.0 mi SSE 4.6 mph - N/A   Clear
7:53 AM 78.1 °F - 75.9 °F 93% 29.99 in 7.0 mi SSE 4.6 mph - N/A   Clear
8:53 AM 81.0 °F 88.6 °F 78.1 °F 91% 30.00 in 10.0 mi SE 4.6 mph - N/A   Partly Cloudy
9:22 AM 81.0 °F 88.6 °F 78.1 °F 91% 30.00 in 10.0 mi SSW 6.9 mph - N/A   Scattered Clouds
9:53 AM 84.9 °F 96.6 °F 78.1 °F 80% 30.02 in 10.0 mi SW 8.1 mph - N/A   Scattered Clouds
10:53 AM 87.1 °F 99.8 °F 78.1 °F 74% 30.00 in 10.0 mi South 12.7 mph - N/A   Partly Cloudy
11:53 AM 87.1 °F 99.8 °F 78.1 °F 74% 30.00 in 10.0 mi SSW 10.4 mph - N/A   Clear
12:53 PM 88.0 °F 100.2 °F 77.0 °F 70% 29.98 in 10.0 mi SW 13.8 mph - N/A   Scattered Clouds
1:53 PM 89.1 °F 101.4 °F 77.0 °F 67% 29.95 in 10.0 mi SSW 12.7 mph - N/A   Scattered Clouds
2:53 PM 88.0 °F 100.2 °F 77.0 °F 70% 29.94 in 10.0 mi SW 11.5 mph - N/A   Scattered Clouds
3:13 PM 88.0 °F 100.2 °F 77.0 °F 70% 29.94 in 10.0 mi WSW 12.7 mph - N/A   Mostly Cloudy
3:53 PM 88.0 °F 100.2 °F 77.0 °F 70% 29.94 in 10.0 mi WSW 9.2 mph - N/A   Scattered Clouds
4:53 PM 88.0 °F 100.2 °F 77.0 °F 70% 29.95 in 10.0 mi West 9.2 mph - N/A   Clear
5:53 PM 86.0 °F 96.9 °F 77.0 °F 74% 29.96 in 10.0 mi West 9.2 mph - N/A   Scattered Clouds
6:53 PM 84.0 °F 92.6 °F 75.9 °F 76% 29.96 in 10.0 mi West 6.9 mph - N/A   Clear
7:53 PM 84.0 °F 92.6 °F 75.9 °F 76% 29.97 in 10.0 mi WNW 9.2 mph - N/A   Partly Cloudy
8:53 PM 84.0 °F 91.9 °F 75.0 °F 74% 29.99 in 10.0 mi NW 6.9 mph - 0.00 in Rain Light Rain
9:53 PM 81.0 °F 86.2 °F 73.9 °F 79% 30.00 in 10.0 mi NW 5.8 mph - 0.00 in   Clear
11:53 PM 80.1 °F 85.1 °F 75.0 °F 85% 30.00 in 10.0 mi North 4.6 mph - N/A   Clear